BWA445 TBPB-TTPP

Flight info

Callsign BWA445
Flight time 0h 46m
Altitude FL200
Route BGI R515 LOGAN TAB NAPKO LEXOR TALUS
Aircraft AT76/M-SDFGIRY/S

Departure

Time 2026-05-07 00:28
Airport Grantley Adams International Airport (TBPB)

Arrival

Time 2026-05-07 01:14
Airport Piarco International Airport (TTPP)
Time Latitude Longitude Altitude Speed Heading
2026-05-07 00:24 13.07768 -59.47973 170 ft 0 kts 256°
2026-05-07 00:27 13.07731 -59.48110 169 ft 53 kts 256°
2026-05-07 00:27 13.07591 -59.48694 171 ft 114 kts 255°
2026-05-07 00:27 13.07361 -59.49630 284 ft 147 kts 256°
2026-05-07 00:28 13.07195 -59.50687 871 ft 151 kts 261°
2026-05-07 00:28 13.06954 -59.51781 1323 ft 165 kts 249°
2026-05-07 00:28 13.06319 -59.52678 2126 ft 139 kts 219°
2026-05-07 00:28 13.05566 -59.53364 2675 ft 150 kts 217°
2026-05-07 00:29 13.04619 -59.53731 3146 ft 146 kts 178°
2026-05-07 00:29 13.03674 -59.54110 3607 ft 156 kts 221°
2026-05-07 00:30 13.01121 -59.56337 4862 ft 181 kts 213°
2026-05-07 00:30 13.00047 -59.57089 5152 ft 194 kts 210°
2026-05-07 00:30 12.98889 -59.57860 5451 ft 203 kts 210°
2026-05-07 00:30 12.97739 -59.58729 5798 ft 209 kts 217°
2026-05-07 00:31 12.96639 -59.59717 6210 ft 211 kts 218°
2026-05-07 00:31 12.95556 -59.60706 6678 ft 208 kts 218°
2026-05-07 00:31 12.94476 -59.61684 7114 ft 207 kts 218°
2026-05-07 00:31 12.93391 -59.62625 7584 ft 203 kts 217°
2026-05-07 00:32 12.92317 -59.63545 8065 ft 200 kts 218°
2026-05-07 00:32 12.91261 -59.64451 8533 ft 196 kts 217°
2026-05-07 00:32 12.90225 -59.65340 9033 ft 193 kts 217°
2026-05-07 00:32 12.89200 -59.66207 9522 ft 190 kts 217°
2026-05-07 00:33 12.88178 -59.67059 9965 ft 190 kts 217°
2026-05-07 00:33 12.87153 -59.67923 10340 ft 192 kts 217°
2026-05-07 00:33 12.86123 -59.68800 10749 ft 195 kts 218°
2026-05-07 00:33 12.85078 -59.69696 11141 ft 198 kts 219°
2026-05-07 00:34 12.84018 -59.70603 11543 ft 200 kts 218°
2026-05-07 00:34 12.82939 -59.71518 11954 ft 202 kts 218°
2026-05-07 00:34 12.81855 -59.72444 12362 ft 204 kts 219°
2026-05-07 00:34 12.80761 -59.73383 12782 ft 207 kts 219°
2026-05-07 00:35 12.79656 -59.74330 13204 ft 209 kts 219°
2026-05-07 00:35 12.78542 -59.75286 13639 ft 210 kts 220°
2026-05-07 00:35 12.77407 -59.76269 13877 ft 223 kts 220°
2026-05-07 00:35 12.76182 -59.77342 13929 ft 241 kts 220°
2026-05-07 00:36 12.74866 -59.78500 13951 ft 257 kts 220°
2026-05-07 00:36 12.73467 -59.79703 13964 ft 270 kts 220°
2026-05-07 00:36 12.72001 -59.80960 13969 ft 280 kts 220°
2026-05-07 00:36 12.70487 -59.82250 13971 ft 287 kts 220°
2026-05-07 00:37 12.68940 -59.83576 13969 ft 293 kts 220°
2026-05-07 00:37 12.67364 -59.84921 13971 ft 297 kts 220°
2026-05-07 00:37 12.65769 -59.86285 13969 ft 301 kts 219°
2026-05-07 00:37 12.64162 -59.87658 13970 ft 303 kts 219°
2026-05-07 00:38 12.62539 -59.89044 13971 ft 305 kts 219°
2026-05-07 00:38 12.60910 -59.90436 13972 ft 306 kts 219°
2026-05-07 00:38 12.59273 -59.91833 13972 ft 307 kts 219°
2026-05-07 00:38 12.57632 -59.93232 13968 ft 308 kts 219°
2026-05-07 00:39 12.55990 -59.94635 13970 ft 309 kts 219°
2026-05-07 00:39 12.54342 -59.96042 13971 ft 309 kts 219°
2026-05-07 00:39 12.52695 -59.97447 13974 ft 309 kts 219°
2026-05-07 00:39 12.51047 -59.98853 13974 ft 309 kts 219°
2026-05-07 00:40 12.49398 -60.00259 13971 ft 309 kts 219°
2026-05-07 00:40 12.47749 -60.01665 13973 ft 309 kts 219°
2026-05-07 00:40 12.46097 -60.03074 13971 ft 310 kts 219°
2026-05-07 00:40 12.44447 -60.04482 13973 ft 310 kts 219°
2026-05-07 00:41 12.42794 -60.05889 13974 ft 310 kts 219°
2026-05-07 00:41 12.41144 -60.07295 13972 ft 310 kts 219°
2026-05-07 00:41 12.39492 -60.08703 13972 ft 310 kts 219°
2026-05-07 00:41 12.37839 -60.10112 13971 ft 310 kts 219°
2026-05-07 00:42 12.36185 -60.11521 13971 ft 310 kts 219°
2026-05-07 00:42 12.34531 -60.12929 13973 ft 310 kts 219°
2026-05-07 00:42 12.32877 -60.14338 13974 ft 310 kts 219°
2026-05-07 00:42 12.31222 -60.15748 13969 ft 310 kts 219°
2026-05-07 00:43 12.29563 -60.17157 13971 ft 310 kts 219°
2026-05-07 00:43 12.27909 -60.18568 13974 ft 310 kts 219°
2026-05-07 00:43 12.26251 -60.19975 13973 ft 310 kts 219°
2026-05-07 00:43 12.24598 -60.21383 13973 ft 310 kts 219°
2026-05-07 00:44 12.22943 -60.22793 13973 ft 310 kts 219°
2026-05-07 00:44 12.21287 -60.24200 13971 ft 310 kts 219°
2026-05-07 00:44 12.19630 -60.25609 13969 ft 310 kts 219°
2026-05-07 00:44 12.17980 -60.27014 13970 ft 310 kts 219°
2026-05-07 00:45 12.16323 -60.28417 13970 ft 310 kts 219°
2026-05-07 00:45 12.14668 -60.29825 13966 ft 310 kts 219°
2026-05-07 00:45 12.13012 -60.31234 13964 ft 310 kts 219°
2026-05-07 00:45 12.11358 -60.32639 13964 ft 310 kts 219°
2026-05-07 00:46 12.09705 -60.34044 13968 ft 310 kts 219°
2026-05-07 00:46 12.08051 -60.35449 13970 ft 310 kts 219°
2026-05-07 00:46 12.06393 -60.36856 13966 ft 310 kts 219°
2026-05-07 00:46 12.04741 -60.38259 13968 ft 310 kts 219°
2026-05-07 00:47 12.03084 -60.39666 13971 ft 310 kts 219°
2026-05-07 00:47 12.01429 -60.41071 13968 ft 310 kts 219°
2026-05-07 00:47 11.99771 -60.42479 13967 ft 310 kts 219°
2026-05-07 00:47 11.98113 -60.43886 13967 ft 311 kts 219°
2026-05-07 00:48 11.96455 -60.45293 13969 ft 311 kts 219°
2026-05-07 00:48 11.94797 -60.46697 13966 ft 311 kts 219°
2026-05-07 00:48 11.93138 -60.48105 13966 ft 310 kts 219°
2026-05-07 00:48 11.91480 -60.49512 13964 ft 310 kts 219°
2026-05-07 00:49 11.89823 -60.50917 13964 ft 310 kts 219°
2026-05-07 00:49 11.88163 -60.52321 13959 ft 310 kts 219°
2026-05-07 00:49 11.86506 -60.53726 13961 ft 310 kts 219°
2026-05-07 00:49 11.84849 -60.55131 13961 ft 310 kts 219°
2026-05-07 00:50 11.83192 -60.56534 13962 ft 310 kts 219°
2026-05-07 00:50 11.81536 -60.57937 13962 ft 310 kts 219°
2026-05-07 00:50 11.79875 -60.59343 13964 ft 310 kts 219°
2026-05-07 00:50 11.78215 -60.60744 13963 ft 310 kts 219°
2026-05-07 00:51 11.76551 -60.62137 13965 ft 310 kts 218°
2026-05-07 00:51 11.74882 -60.63528 13963 ft 311 kts 218°
2026-05-07 00:51 11.73219 -60.64927 13959 ft 311 kts 219°
2026-05-07 00:51 11.71561 -60.66334 13964 ft 311 kts 219°
2026-05-07 00:52 11.69904 -60.67744 13960 ft 311 kts 219°
2026-05-07 00:52 11.68248 -60.69149 13963 ft 311 kts 219°
2026-05-07 00:52 11.66587 -60.70555 13961 ft 311 kts 219°
2026-05-07 00:52 11.64924 -60.71959 13963 ft 311 kts 219°
2026-05-07 00:53 11.63263 -60.73361 13963 ft 311 kts 219°
2026-05-07 00:53 11.61602 -60.74765 13959 ft 311 kts 219°
2026-05-07 00:53 11.59941 -60.76170 13962 ft 310 kts 219°
2026-05-07 00:53 11.58285 -60.77570 13961 ft 310 kts 219°
2026-05-07 00:54 11.56625 -60.78973 13962 ft 310 kts 219°
2026-05-07 00:54 11.54965 -60.80374 13959 ft 310 kts 219°
2026-05-07 00:54 11.53307 -60.81776 13958 ft 310 kts 219°
2026-05-07 00:54 11.51650 -60.83175 13959 ft 310 kts 219°
2026-05-07 00:55 11.49995 -60.84575 13960 ft 310 kts 219°
2026-05-07 00:55 11.48328 -60.85982 13961 ft 310 kts 219°
2026-05-07 00:55 11.46671 -60.87381 13963 ft 311 kts 219°
2026-05-07 00:55 11.45007 -60.88785 13964 ft 309 kts 219°
2026-05-07 00:56 11.43383 -60.90162 13747 ft 304 kts 218°
2026-05-07 00:56 11.41747 -60.91547 13307 ft 307 kts 218°
2026-05-07 00:56 11.40104 -60.92929 12964 ft 305 kts 218°
2026-05-07 00:56 11.38485 -60.94289 12724 ft 301 kts 218°
2026-05-07 00:57 11.36883 -60.95638 12479 ft 297 kts 218°
2026-05-07 00:57 11.35301 -60.96972 12231 ft 294 kts 218°
2026-05-07 00:57 11.33736 -60.98295 11986 ft 292 kts 218°
2026-05-07 00:57 11.32183 -60.99604 11748 ft 290 kts 218°
2026-05-07 00:58 11.30638 -61.00906 11510 ft 288 kts 217°
2026-05-07 00:58 11.29103 -61.02200 11271 ft 286 kts 217°
2026-05-07 00:58 11.27577 -61.03488 11036 ft 285 kts 217°
2026-05-07 00:58 11.26057 -61.04769 10803 ft 284 kts 217°
2026-05-07 00:59 11.23037 -61.07308 10326 ft 281 kts 217°
2026-05-07 00:59 11.21537 -61.08568 10116 ft 279 kts 217°
2026-05-07 00:59 11.20047 -61.09824 9884 ft 278 kts 217°
2026-05-07 01:00 11.18569 -61.11073 9627 ft 276 kts 217°
2026-05-07 01:00 11.17094 -61.12315 9378 ft 275 kts 216°
2026-05-07 01:00 11.15624 -61.13554 9125 ft 274 kts 216°
2026-05-07 01:00 11.14159 -61.14785 8877 ft 274 kts 216°
2026-05-07 01:01 11.12693 -61.16015 8628 ft 273 kts 217°
2026-05-07 01:01 11.11234 -61.17244 8380 ft 272 kts 216°
2026-05-07 01:01 11.09777 -61.18473 8162 ft 271 kts 217°
2026-05-07 01:01 11.08340 -61.19683 8028 ft 267 kts 216°
2026-05-07 01:02 11.06912 -61.20882 7813 ft 267 kts 216°
2026-05-07 01:02 11.05480 -61.22084 7598 ft 267 kts 216°
2026-05-07 01:02 11.04048 -61.23289 7383 ft 267 kts 217°
2026-05-07 01:02 11.02619 -61.24491 7163 ft 267 kts 216°
2026-05-07 01:03 11.01192 -61.25698 6959 ft 267 kts 216°
2026-05-07 01:03 10.99762 -61.26899 6746 ft 267 kts 216°
2026-05-07 01:03 10.98357 -61.28071 6541 ft 266 kts 216°
2026-05-07 01:03 10.97582 -61.28719 6429 ft 266 kts 216°
2026-05-07 01:04 10.96156 -61.29911 6218 ft 266 kts 216°
2026-05-07 01:04 10.94744 -61.31105 6082 ft 262 kts 216°
2026-05-07 01:04 10.93357 -61.32274 6017 ft 257 kts 216°
2026-05-07 01:04 10.91996 -61.33422 5996 ft 252 kts 216°
2026-05-07 01:05 10.90659 -61.34545 5978 ft 248 kts 216°
2026-05-07 01:05 10.89335 -61.35652 5975 ft 245 kts 216°
2026-05-07 01:05 10.88027 -61.36745 5972 ft 243 kts 216°
2026-05-07 01:05 10.86734 -61.37830 5969 ft 241 kts 216°
2026-05-07 01:06 10.85450 -61.38910 5966 ft 239 kts 216°
2026-05-07 01:06 10.84175 -61.39982 5966 ft 238 kts 216°
2026-05-07 01:06 10.82904 -61.41048 5968 ft 237 kts 216°
2026-05-07 01:06 10.81638 -61.42114 5965 ft 236 kts 216°
2026-05-07 01:07 10.80376 -61.43176 5964 ft 236 kts 216°
2026-05-07 01:07 10.79110 -61.44233 5965 ft 236 kts 216°
2026-05-07 01:07 10.77847 -61.45286 5963 ft 235 kts 216°
2026-05-07 01:07 10.76590 -61.46339 5965 ft 234 kts 216°
2026-05-07 01:08 10.75340 -61.47397 5876 ft 232 kts 216°
2026-05-07 01:08 10.74098 -61.48419 5886 ft 230 kts 214°
2026-05-07 01:08 10.72823 -61.49471 5650 ft 243 kts 216°
2026-05-07 01:08 10.71492 -61.50577 5379 ft 252 kts 216°
2026-05-07 01:09 10.70111 -61.51694 5127 ft 254 kts 209°
2026-05-07 01:09 10.68469 -61.52255 4887 ft 249 kts 186°
2026-05-07 01:09 10.66765 -61.52391 4765 ft 245 kts 177°
2026-05-07 01:09 10.65080 -61.52369 4719 ft 240 kts 174°
2026-05-07 01:10 10.63424 -61.52310 4625 ft 239 kts 174°
2026-05-07 01:10 10.61757 -61.52222 4434 ft 238 kts 168°
2026-05-07 01:10 10.60339 -61.51502 4347 ft 227 kts 131°
2026-05-07 01:10 10.59657 -61.50116 4309 ft 218 kts 103°
2026-05-07 01:11 10.59431 -61.48607 4292 ft 216 kts 94°
2026-05-07 01:11 10.59390 -61.47060 4027 ft 225 kts 90°
2026-05-07 01:11 10.59418 -61.45460 3627 ft 229 kts 88°
2026-05-07 01:11 10.59466 -61.43936 3301 ft 198 kts 88°
2026-05-07 01:12 10.59503 -61.42663 2946 ft 166 kts 88°
2026-05-07 01:12 10.59518 -61.41554 2478 ft 152 kts 89°
2026-05-07 01:12 10.59512 -61.40525 2121 ft 144 kts 90°
2026-05-07 01:12 10.59445 -61.39560 1735 ft 128 kts 89°
2026-05-07 01:13 10.59450 -61.38685 1307 ft 121 kts 90°
2026-05-07 01:13 10.59504 -61.37828 826 ft 126 kts 79°
2026-05-07 01:13 10.59562 -61.36982 522 ft 114 kts 94°
2026-05-07 01:13 10.59533 -61.36179 293 ft 118 kts 93°
2026-05-07 01:14 10.59533 -61.35339 122 ft 120 kts 89°
2026-05-07 01:14 10.59535 -61.34518 46 ft 99 kts 90°
2026-05-07 01:14 10.59535 -61.34103 46 ft 47 kts 89°
2026-05-07 01:14 10.59539 -61.33811 46 ft 38 kts 89°
2026-05-07 01:15 10.59557 -61.33571 45 ft 27 kts 70°
2026-05-07 01:15 10.59648 -61.33451 46 ft 18 kts 30°
2026-05-07 01:15 10.59709 -61.33367 46 ft 10 kts 95°
2026-05-07 01:15 10.59709 -61.33357 46 ft 0 kts 89°